Shelbyville, IN

10:15 PM EST on February 25, 2017 (GMT -0500)
Shelbyville Municipal

Weather History for KGEZ - April, 2014

Change the Weather History Date:

Wednesday, April 30, 2014

  Actual Average Record
Temperature  
Mean Temperature 56 °F 58 °F  
Max Temperature 68 °F 68 °F 86 °F (2007)
Min Temperature 44 °F 47 °F 32 °F (2008)
Degree Days  
Heating Degree Days 9 8  
Month to date heating degree days 283 377  
Since 1 July heating degree days 5599 5260  
Cooling Degree Days 0 1  
Month to date cooling degree days 10 12  
Year to date cooling degree days 10 13  
Growing Degree Days 7 (Base 50)    
Moisture  
Dew Point 48 °F    
Average Humidity 69    
Maximum Humidity 89    
Minimum Humidity 48    
Precipitation  
Precipitation 0.00 in 0.21 in 0.64 in (2004)
Month to date precipitation 5.40 4.32  
Year to date precipitation 11.34 12.50  
Sea Level Pressure  
Sea Level Pressure 29.80 in    
Wind  
Wind Speed 12 mph (SW)    
Max Wind Speed 22 mph    
Max Gust Speed 29 mph    
Visibility 10 miles    
Events      
T = Trace of Precipitation, MM = Missing Value Source: NWS Daily Summary

Daily Weather History Graph

Daily Weather History Graph

Search for Another Location

Airport or City:

Trip Planner

Search our weather history database for the weather conditions in past years. The results will help you decide how hot, cold, wet, or windy it might be!

Date:

Astronomy

Apr. 30, 2014 Rise Set
Actual Time 6:45 AM EDT 8:36 PM EDT
Civil Twilight 6:16 AM EDT 9:05 PM EDT
Nautical Twilight 5:41 AM EDT 9:40 PM EDT
Astronomical Twilight 5:03 AM EDT 10:18 PM EDT
Moon 7:46 AM EDT (4/30) 10:14 PM EDT (4/30)
Length of Visible Light 14h 48m
Length of Day
13h 50m
New Moon, 2% of the Moon is Illuminated
Apr 30
New Moon
May 6
First Quarter
May 14
Full
May 21
Last Quarter
May 28
New

Hourly Weather History & Observations

Time (EDT) Temp. Dew Point Humidity Pressure Visibility Wind Dir Wind Speed Gust Speed Precip Events Conditions
12:53 AM 55.9 °F 48.9 °F 77% 29.74 in 10.0 mi South 12.7 mph - N/A   Clear
1:53 AM 55.0 °F 48.9 °F 80% 29.75 in 10.0 mi South 11.5 mph - N/A   Clear
2:53 AM 55.0 °F 48.9 °F 80% 29.74 in 10.0 mi South 9.2 mph - N/A   Clear
3:53 AM 54.0 °F 48.9 °F 83% 29.75 in 10.0 mi South 9.2 mph - N/A   Partly Cloudy
4:53 AM 53.1 °F 48.9 °F 86% 29.76 in 10.0 mi South 9.2 mph - N/A   Partly Cloudy
5:50 AM 53.6 °F 48.2 °F 82% 29.77 in 10.0 mi South 10.4 mph - N/A   Mostly Cloudy
5:53 AM 53.1 °F 48.9 °F 86% 29.77 in 10.0 mi South 10.4 mph - N/A   Mostly Cloudy
6:53 AM 53.1 °F 50.0 °F 89% 29.78 in 10.0 mi South 5.8 mph - N/A   Overcast
7:09 AM 53.1 °F 50.0 °F 89% 29.79 in 10.0 mi South 6.9 mph - N/A   Overcast
7:53 AM 54.0 °F 50.0 °F 86% 29.79 in 10.0 mi South 6.9 mph - N/A   Overcast
8:43 AM 54.0 °F 51.1 °F 90% 29.78 in 10.0 mi South 6.9 mph - N/A   Overcast
8:53 AM 55.0 °F 51.1 °F 86% 29.77 in 10.0 mi South 9.2 mph - N/A   Overcast
9:07 AM 55.0 °F 51.1 °F 86% 29.78 in 10.0 mi South 8.1 mph - N/A   Overcast
9:15 AM 55.9 °F 52.0 °F 87% 29.78 in 10.0 mi South 8.1 mph - N/A   Overcast
9:53 AM 57.0 °F 52.0 °F 83% 29.78 in 10.0 mi South 8.1 mph - N/A   Overcast
10:09 AM 57.9 °F 52.0 °F 81% 29.78 in 10.0 mi South 9.2 mph - N/A   Overcast
11:53 AM 60.1 °F 51.1 °F 72% 29.77 in 9.0 mi South 15.0 mph - N/A   Mostly Cloudy
12:28 PM 63.0 °F 51.1 °F 65% 29.77 in 10.0 mi South 15.0 mph - N/A   Scattered Clouds
12:53 PM 64.0 °F 51.1 °F 63% 29.76 in 10.0 mi SSW 15.0 mph - N/A   Mostly Cloudy
1:53 PM 64.9 °F 48.0 °F 54% 29.75 in 10.0 mi SSW 17.3 mph 23.0 mph N/A   Mostly Cloudy
2:53 PM 66.9 °F 46.9 °F 49% 29.75 in 10.0 mi SW 19.6 mph 24.2 mph N/A   Mostly Cloudy
4:53 PM 63.0 °F 45.0 °F 52% 29.78 in 10.0 mi West 18.4 mph - N/A   Overcast
5:53 PM 60.1 °F 45.0 °F 57% 29.80 in 10.0 mi West 16.1 mph - N/A   Overcast
6:53 PM 55.0 °F 46.9 °F 74% 29.82 in 10.0 mi West 17.3 mph - N/A   Overcast
7:10 PM 53.1 °F 46.9 °F 80% 29.84 in 10.0 mi WNW 18.4 mph - N/A   Overcast
7:22 PM 52.0 °F 46.0 °F 80% 29.85 in 10.0 mi West 15.0 mph - N/A   Overcast
7:38 PM 52.0 °F 46.9 °F 83% 29.85 in 6.0 mi West 11.5 mph - N/A   Haze
7:42 PM 52.0 °F 46.9 °F 83% 29.85 in 8.0 mi WNW 11.5 mph 19.6 mph N/A   Overcast
7:53 PM 52.0 °F 46.0 °F 80% 29.86 in 10.0 mi WNW 11.5 mph - N/A   Overcast
8:32 PM 52.0 °F 46.0 °F 80% 29.87 in 10.0 mi West 10.4 mph - N/A   Overcast
8:53 PM 51.1 °F 42.1 °F 71% 29.88 in 10.0 mi West 16.1 mph 24.2 mph N/A   Overcast
9:24 PM 51.1 °F 41.0 °F 68% 29.88 in 10.0 mi West 12.7 mph - N/A   Overcast
9:53 PM 50.0 °F 39.9 °F 68% 29.90 in 10.0 mi West 12.7 mph - N/A   Overcast
10:53 PM 48.9 °F 37.9 °F 66% 29.91 in 10.0 mi West 10.4 mph - N/A   Overcast
11:53 PM 46.9 °F 39.0 °F 74% 29.90 in 10.0 mi WSW 6.9 mph - N/A   Clear